Location: Degersen
(52.2871°N, 9.5716°E)
Time: 22:31:26
(UTC+00:00)

GEOS 3 Rocket - Pass Details

Date: 20 January 2026
Orbit: 768 x 845 km, 115.0° (Epoch: 7 February)

Event Time Altitude Azimuth Distance (km) Brightness Sun altitude
Rises 05:43:03 0° 151° (SSE) 3,311 7.5 -14.2°
Reaches altitude 10° 05:45:23 10° 156° (SSE) 2,395 6.6 -13.9°
Maximum altitude 05:50:28 52° 233° (SW) 1,021 3.9 -13.1°
Enters shadow 05:54:42 15° 306° (NW) 2,086 5.2 -12.5°
